GEFSSGP_prec_meanprecacc_354.txt.gz
Total_Precipitation_Accumulation
0.21 0.51 1.16 1.71 2.54 2.75 2.07 1.20 0.93 0.68 0.60 0.70 0.65 0.56 0.69 0.95 1.42 2.54 2.66 2.57 2.09 1.96 2.09 2.58 3.09 2.85 2.57 2.42 2.42 2.40 2.18 2.18 2.35 2.56 2.62 2.73 2.82 2.91 2.97 3.15 3.31 3.52 3.92 3.72 3.18 2.77 2.70 2.66 2.54
0.44 0.87 1.53 2.17 2.94 2.76 1.90 1.11 0.87 0.59 0.57 0.61 0.52 0.48 0.61 0.73 0.92 1.60 2.33 2.39 1.82 1.61 1.75 2.07 2.55 2.57 2.33 2.19 2.21 2.19 2.14 2.13 2.37 2.70 2.65 2.70 2.79 2.91 3.07 3.37 3.38 3.45 3.39 2.94 2.72 2.46 2.34 2.22 2.24
0.77 1.21 1.84 2.37 2.22 1.94 1.29 0.80 0.61 0.50 0.59 0.60 0.52 0.53 0.75 1.09 1.22 1.62 1.87 1.79 1.54 1.41 1.59 2.08 2.35 2.27 2.16 2.04 1.99 1.98 2.10 2.20 2.52 2.70 2.55 2.57 2.60 2.73 2.97 3.35 3.33 3.13 2.81 2.53 2.43 2.22 2.17 1.96 1.90
0.99 1.53 1.77 1.79 1.52 1.15 0.82 0.65 0.49 0.47 0.58 0.53 0.51 0.79 1.11 1.33 1.18 1.28 1.37 1.32 1.20 1.29 1.60 2.04 2.12 1.85 1.78 1.86 1.89 1.93 2.11 2.41 2.65 2.50 2.50 2.53 2.59 2.60 2.69 2.79 2.84 2.71 2.40 2.30 2.18 2.02 1.96 1.85 1.81
1.14 1.74 1.90 1.42 1.07 0.82 0.63 0.54 0.47 0.46 0.43 0.51 0.63 1.08 1.56 1.60 1.11 1.15 1.20 1.08 1.04 1.35 1.67 1.82 1.95 1.70 1.58 1.70 1.85 2.06 2.35 2.67 2.60 2.35 2.28 2.30 2.34 2.35 2.34 2.35 2.39 2.41 2.24 2.13 2.05 2.00 1.86 1.93 1.90
1.39 1.58 1.48 1.06 0.80 0.60 0.54 0.48 0.42 0.41 0.46 0.55 0.70 0.94 1.73 1.78 1.35 1.42 1.28 1.26 1.27 1.41 1.54 1.75 1.89 1.70 1.61 1.70 1.83 2.01 2.39 2.62 2.46 2.24 2.13 2.05 1.97 1.98 2.05 2.12 2.21 2.23 2.06 1.93 1.92 1.91 1.88 1.91 1.85
1.37 1.40 1.10 0.71 0.60 0.52 0.45 0.38 0.38 0.42 0.58 0.66 0.74 1.09 1.90 2.14 1.67 1.47 1.50 1.59 1.52 1.59 1.77 1.78 1.64 1.63 1.78 1.97 2.08 2.12 2.39 2.47 2.32 2.22 2.08 1.97 1.88 1.93 1.96 1.90 2.01 2.06 1.99 1.94 1.87 1.88 1.84 1.87 1.86
0.89 0.87 0.72 0.51 0.46 0.49 0.36 0.30 0.35 0.44 0.61 0.73 0.89 1.25 2.00 2.09 1.69 1.54 1.64 1.92 1.76 1.71 1.73 1.68 1.52 1.58 1.65 1.90 2.32 2.41 2.43 2.41 2.34 2.25 2.18 2.02 1.92 2.05 2.05 1.81 2.00 2.06 2.14 2.10 2.11 2.20 1.95 1.92 2.06
0.55 0.69 0.58 0.41 0.35 0.38 0.32 0.28 0.34 0.47 0.60 0.73 1.01 1.25 1.47 1.50 1.58 1.54 1.78 2.19 2.25 1.96 1.81 1.65 1.36 1.52 1.78 2.02 2.17 2.33 2.36 2.50 2.57 2.53 2.40 2.36 2.41 2.40 2.49 2.22 2.56 2.53 2.56 2.50 2.53 2.61 2.47 2.39 2.29
0.47 0.57 0.45 0.28 0.24 0.26 0.26 0.25 0.34 0.64 0.85 1.13 1.41 1.40 1.27 1.30 1.51 1.66 1.88 2.34 2.45 2.29 2.06 1.82 1.58 1.65 1.96 1.97 2.00 2.20 2.20 2.39 2.53 2.67 2.56 2.86 3.15 2.99 2.36 2.68 3.14 3.29 3.26 3.10 3.15 3.29 3.08 2.73 2.49
0.40 0.40 0.29 0.24 0.22 0.18 0.18 0.24 0.32 0.51 1.07 1.59 1.85 1.81 1.66 1.45 1.66 2.01 2.38 2.73 2.53 2.29 2.18 2.12 1.97 1.98 1.94 2.08 2.06 2.25 2.45 2.85 2.75 2.66 2.66 3.12 3.02 2.74 2.54 2.85 3.35 3.76 3.52 3.27 3.36 3.57 3.15 3.17 3.46
0.32 0.26 0.18 0.16 0.16 0.13 0.17 0.26 0.40 0.56 1.07 1.37 1.55 1.61 1.61 1.61 1.74 1.98 2.27 2.58 2.79 2.75 2.63 2.54 2.46 2.41 2.44 2.39 2.28 2.22 2.34 2.58 2.71 2.93 2.68 3.02 3.33 3.27 3.21 3.54 3.54 3.78 3.87 4.21 3.97 4.11 3.92 3.83 3.61
0.25 0.19 0.14 0.12 0.13 0.13 0.16 0.28 0.46 0.67 0.93 0.97 1.02 1.13 1.39 1.68 2.11 2.40 2.51 2.85 2.97 3.15 3.06 3.02 2.96 2.97 3.03 3.03 2.87 2.35 2.52 2.62 2.75 3.07 3.10 3.23 3.60 3.77 3.83 3.86 3.78 3.47 3.75 4.19 4.48 4.08 4.43 4.45 4.00
0.22 0.16 0.14 0.15 0.14 0.17 0.20 0.29 0.44 0.69 0.80 0.83 0.91 1.10 1.38 1.71 2.02 2.46 2.74 3.14 3.15 3.25 3.47 3.69 3.64 3.54 3.61 3.54 3.44 3.22 3.01 3.20 3.18 3.38 3.59 3.79 4.14 4.36 4.30 4.12 4.02 3.62 3.54 3.87 4.09 4.08 4.59 4.44 4.16
0.20 0.22 0.22 0.20 0.18 0.22 0.37 0.60 0.68 0.80 0.80 0.95 1.05 1.31 1.50 1.80 2.17 2.27 2.45 2.74 3.08 3.40 3.96 4.35 4.40 4.30 4.34 4.33 4.05 3.78 3.72 3.73 4.01 4.28 4.35 4.36 4.49 4.83 4.61 4.36 3.94 3.67 3.66 3.93 3.93 3.97 4.12 3.92 3.79
0.27 0.38 0.45 0.35 0.26 0.27 0.47 0.99 0.94 0.89 0.93 1.10 1.13 1.38 1.72 1.82 2.15 2.28 2.34 2.59 3.24 3.75 4.39 4.81 4.96 5.17 5.09 5.14 4.93 4.52 4.41 4.41 4.47 4.60 4.81 4.60 4.58 4.51 4.59 4.26 3.75 3.74 3.69 3.81 4.02 3.88 3.97 3.94 3.92
0.36 0.44 0.50 0.49 0.32 0.32 0.49 0.92 0.97 0.93 1.08 1.21 1.35 1.39 1.55 1.79 2.22 2.51 2.69 2.83 3.46 4.14 4.86 5.40 5.97 6.22 6.07 5.82 5.52 5.23 5.19 5.04 4.85 4.85 4.87 4.73 4.39 4.17 4.43 4.16 3.92 3.78 3.74 3.66 3.44 3.94 4.09 4.11 4.08
0.41 0.42 0.49 0.55 0.34 0.33 0.56 0.82 0.99 1.07 1.22 1.35 1.37 1.34 1.48 1.83 2.05 2.40 2.77 3.18 3.74 4.24 5.03 5.76 6.49 6.70 6.45 5.93 5.72 5.70 5.51 5.20 4.93 4.72 4.68 4.36 4.15 3.78 4.03 3.77 3.68 3.78 3.96 3.84 3.89 4.27 4.27 3.92 4.01
0.29 0.35 0.47 0.48 0.33 0.39 0.61 0.81 1.00 1.19 1.33 1.35 1.46 1.44 1.63 1.91 2.09 2.47 2.88 3.36 3.89 4.44 5.16 5.84 6.43 6.54 6.43 6.11 5.81 5.59 5.14 4.83 4.51 4.26 4.10 3.85 3.55 3.43 3.83 3.52 3.89 3.75 3.71 3.58 3.56 3.80 3.84 3.47 3.66
0.25 0.35 0.49 0.47 0.35 0.41 0.65 0.90 1.16 1.24 1.17 1.14 1.33 1.42 1.49 1.70 2.02 2.41 2.99 3.28 3.63 4.19 4.79 5.19 5.29 5.10 5.04 5.14 5.11 4.85 4.85 4.69 4.63 4.48 4.34 3.86 3.63 3.51 3.30 3.54 3.36 3.34 3.52 3.33 3.29 3.53 3.54 3.17 3.49
0.19 0.30 0.39 0.43 0.44 0.53 0.76 1.18 1.43 1.42 1.14 1.03 1.06 1.19 1.32 1.45 1.67 2.04 2.61 2.95 3.13 3.66 4.02 4.03 4.03 4.02 4.15 4.25 4.22 4.27 4.54 4.63 4.74 4.71 4.50 4.15 3.90 3.66 3.47 3.34 3.19 3.19 3.01 3.20 3.26 3.32 3.46 3.44 3.33
0.21 0.20 0.26 0.32 0.48 0.83 0.94 1.51 1.76 1.84 1.56 1.21 1.09 1.25 1.32 1.38 1.40 1.73 2.09 2.33 2.62 2.91 3.08 3.08 3.21 3.39 3.50 3.57 3.60 3.51 3.54 3.83 4.14 4.41 4.55 4.50 4.21 3.88 3.54 3.31 3.13 2.98 2.80 3.11 2.80 2.95 3.28 3.52 3.21
0.14 0.14 0.21 0.33 0.47 0.69 0.82 1.17 1.72 2.01 1.97 1.55 1.26 1.20 1.16 1.29 1.46 1.64 1.77 1.98 2.09 2.19 2.34 2.42 2.69 3.18 3.41 3.47 3.60 3.55 3.30 3.32 3.43 3.58 3.81 3.82 3.84 3.64 3.25 3.14 3.07 2.90 2.72 2.78 2.79 3.16 3.15 3.10 3.03
0.13 0.20 0.32 0.48 0.71 1.09 0.93 1.05 1.62 1.83 1.84 1.46 1.24 1.16 1.06 1.06 1.18 1.39 1.67 1.78 1.78 1.81 1.96 2.17 2.50 3.08 3.41 3.50 3.39 3.42 3.46 3.53 3.43 3.38 3.49 3.40 3.37 3.28 2.98 2.84 2.96 2.84 2.74 2.81 2.81 2.92 2.97 3.13 3.19
0.16 0.33 0.79 1.28 1.60 1.65 1.00 0.97 1.26 1.34 1.21 1.18 1.06 1.09 1.14 1.04 0.97 0.98 1.16 1.41 1.44 1.43 1.59 1.85 2.13 2.61 2.95 3.11 2.97 2.93 3.15 3.35 3.25 3.06 3.00 2.98 2.84 2.77 2.72 2.72 2.85 2.73 2.77 2.82 2.94 2.98 2.96 3.08 3.11
0.16 0.27 0.66 1.03 1.18 1.30 1.16 1.50 1.57 1.17 0.98 0.89 0.79 0.85 0.94 0.84 0.75 0.71 0.77 0.96 1.22 1.25 1.36 1.52 1.80 2.07 2.39 2.61 2.67 2.73 2.93 3.06 3.01 3.21 2.95 2.80 2.46 2.34 2.45 2.66 2.66 2.57 2.55 2.58 3.03 3.03 3.04 3.15 3.06
0.17 0.19 0.31 0.48 0.69 1.04 1.34 1.57 1.48 1.21 1.10 0.92 0.76 0.73 0.72 0.66 0.66 0.70 0.75 0.96 1.05 1.05 1.16 1.33 1.55 1.76 2.03 2.28 2.46 2.53 2.51 2.53 2.68 2.85 2.79 2.63 2.54 2.28 2.35 2.46 2.71 2.78 2.83 2.88 3.06 3.01 3.03 3.25 3.18
0.16 0.18 0.25 0.38 0.65 0.93 1.25 1.70 1.75 1.50 1.26 1.07 1.00 0.82 0.71 0.71 0.71 0.71 0.71 0.77 0.83 0.90 1.06 1.29 1.50 1.54 1.78 2.15 2.41 2.35 2.44 2.36 2.51 2.49 2.47 2.49 2.41 2.35 2.43 2.46 2.55 2.76 2.88 2.90 3.03 3.01 3.07 3.27 3.29
0.20 0.19 0.21 0.29 0.36 0.59 1.15 1.39 1.23 1.22 1.15 1.09 0.99 0.93 0.86 0.81 0.76 0.72 0.73 0.74 0.85 0.82 0.93 1.13 1.30 1.44 1.71 2.07 2.41 2.49 2.44 2.44 2.50 2.32 2.26 2.37 2.39 2.37 2.45 2.49 2.48 2.46 2.61 2.85 3.08 2.98 3.13 3.25 3.28
0.21 0.20 0.22 0.31 0.32 0.38 0.62 0.95 0.73 0.83 0.95 0.99 0.87 0.81 0.76 0.65 0.62 0.58 0.57 0.66 0.67 0.70 0.83 1.17 1.47 1.84 2.04 2.39 2.77 2.87 2.67 2.47 2.31 2.10 2.08 2.25 2.42 2.45 2.44 2.45 2.44 2.37 2.48 2.76 2.90 3.00 3.31 3.44 3.30

GEFSSGP_prec_meanprecacc_360.txt.gz
Total_Precipitation_Accumulation
0.22 0.53 1.18 1.73 2.58 2.78 2.09 1.23 0.96 0.69 0.60 0.71 0.65 0.57 0.70 0.97 1.44 2.56 2.67 2.59 2.11 1.98 2.11 2.62 3.16 2.93 2.66 2.53 2.49 2.46 2.24 2.23 2.41 2.62 2.67 2.80 2.89 2.98 3.08 3.27 3.39 3.61 4.02 3.88 3.39 2.93 2.80 2.75 2.65
0.47 0.90 1.55 2.20 2.96 2.79 1.92 1.13 0.89 0.59 0.57 0.61 0.52 0.49 0.61 0.74 0.94 1.62 2.34 2.40 1.83 1.62 1.76 2.09 2.61 2.68 2.47 2.30 2.28 2.25 2.20 2.20 2.45 2.77 2.71 2.78 2.86 2.99 3.18 3.48 3.47 3.53 3.49 3.09 2.92 2.63 2.44 2.30 2.33
0.80 1.24 1.88 2.42 2.24 1.96 1.31 0.82 0.62 0.50 0.59 0.60 0.52 0.53 0.75 1.10 1.23 1.63 1.88 1.80 1.55 1.42 1.60 2.10 2.41 2.40 2.34 2.18 2.09 2.07 2.26 2.41 2.68 2.78 2.63 2.67 2.69 2.81 3.08 3.51 3.46 3.24 2.95 2.70 2.62 2.37 2.26 2.03 1.98
1.02 1.61 1.83 1.82 1.54 1.16 0.82 0.67 0.49 0.47 0.58 0.53 0.51 0.79 1.11 1.33 1.18 1.29 1.37 1.32 1.21 1.30 1.61 2.06 2.18 1.94 1.99 2.13 2.10 2.12 2.35 2.65 2.82 2.62 2.60 2.61 2.66 2.66 2.77 2.93 3.01 2.89 2.58 2.48 2.36 2.15 2.03 1.93 1.91
1.18 1.81 1.96 1.44 1.08 0.83 0.64 0.55 0.48 0.46 0.43 0.51 0.63 1.08 1.56 1.60 1.12 1.16 1.21 1.09 1.05 1.36 1.68 1.84 2.02 1.77 1.65 1.81 2.01 2.25 2.53 2.81 2.72 2.44 2.34 2.35 2.39 2.40 2.40 2.42 2.50 2.54 2.39 2.29 2.19 2.10 1.94 2.01 1.98
1.43 1.63 1.51 1.07 0.81 0.61 0.56 0.49 0.43 0.41 0.46 0.55 0.70 0.94 1.74 1.79 1.36 1.42 1.30 1.27 1.28 1.41 1.55 1.77 1.94 1.75 1.66 1.76 1.88 2.07 2.46 2.71 2.54 2.31 2.20 2.11 2.02 2.02 2.10 2.18 2.27 2.30 2.15 2.02 1.99 1.98 1.96 1.98 1.91
1.42 1.44 1.11 0.72 0.62 0.54 0.46 0.40 0.39 0.43 0.58 0.66 0.74 1.09 1.92 2.16 1.68 1.48 1.52 1.61 1.53 1.59 1.78 1.80 1.68 1.68 1.84 2.03 2.15 2.16 2.43 2.53 2.37 2.27 2.13 2.01 1.92 1.98 2.00 1.97 2.08 2.13 2.06 1.99 1.93 1.94 1.91 1.94 1.92
0.91 0.89 0.74 0.53 0.48 0.51 0.37 0.31 0.36 0.45 0.62 0.74 0.89 1.26 2.02 2.10 1.70 1.56 1.66 1.94 1.77 1.73 1.76 1.72 1.57 1.63 1.69 1.93 2.37 2.47 2.48 2.47 2.39 2.29 2.22 2.06 1.96 2.10 2.12 1.88 2.08 2.14 2.21 2.16 2.17 2.27 2.02 1.99 2.14
0.56 0.71 0.60 0.44 0.40 0.42 0.34 0.30 0.35 0.48 0.61 0.74 1.02 1.25 1.47 1.51 1.59 1.55 1.78 2.20 2.26 1.99 1.86 1.70 1.41 1.57 1.81 2.04 2.20 2.36 2.40 2.55 2.62 2.57 2.43 2.39 2.44 2.43 2.53 2.27 2.63 2.62 2.64 2.59 2.62 2.70 2.56 2.48 2.37
0.48 0.58 0.47 0.30 0.29 0.32 0.30 0.28 0.36 0.65 0.86 1.14 1.42 1.40 1.27 1.31 1.52 1.66 1.89 2.35 2.46 2.30 2.07 1.85 1.60 1.68 1.99 1.99 2.01 2.21 2.21 2.41 2.56 2.69 2.59 2.89 3.18 3.02 2.38 2.72 3.23 3.39 3.34 3.19 3.25 3.39 3.17 2.80 2.53
0.40 0.41 0.30 0.27 0.26 0.21 0.20 0.26 0.32 0.51 1.07 1.60 1.85 1.82 1.66 1.46 1.66 2.02 2.38 2.74 2.54 2.29 2.18 2.13 1.99 2.00 1.96 2.10 2.07 2.26 2.46 2.87 2.77 2.68 2.68 3.13 3.04 2.77 2.56 2.87 3.39 3.82 3.57 3.30 3.40 3.60 3.18 3.20 3.48
0.33 0.27 0.19 0.18 0.19 0.15 0.18 0.27 0.40 0.57 1.08 1.37 1.55 1.62 1.62 1.61 1.74 1.98 2.28 2.59 2.80 2.76 2.64 2.55 2.47 2.42 2.46 2.41 2.30 2.23 2.35 2.61 2.74 2.95 2.70 3.03 3.34 3.28 3.23 3.55 3.55 3.80 3.89 4.23 4.01 4.13 3.94 3.85 3.64
0.26 0.20 0.15 0.14 0.14 0.15 0.17 0.29 0.46 0.68 0.94 0.97 1.02 1.13 1.39 1.68 2.11 2.40 2.52 2.86 2.98 3.16 3.07 3.03 2.96 2.98 3.04 3.04 2.90 2.38 2.54 2.65 2.79 3.11 3.11 3.24 3.62 3.80 3.86 3.88 3.80 3.49 3.77 4.21 4.51 4.10 4.45 4.46 4.02
0.23 0.17 0.15 0.16 0.16 0.18 0.21 0.30 0.44 0.70 0.81 0.84 0.91 1.11 1.38 1.71 2.02 2.47 2.74 3.15 3.16 3.26 3.50 3.72 3.66 3.56 3.63 3.57 3.46 3.25 3.04 3.23 3.22 3.41 3.62 3.82 4.17 4.39 4.32 4.14 4.04 3.64 3.57 3.91 4.12 4.10 4.62 4.47 4.18
0.21 0.23 0.23 0.21 0.19 0.23 0.38 0.61 0.69 0.81 0.81 0.96 1.05 1.31 1.50 1.81 2.18 2.28 2.45 2.74 3.09 3.43 4.04 4.42 4.46 4.34 4.37 4.36 4.08 3.80 3.75 3.76 4.04 4.32 4.39 4.40 4.53 4.86 4.64 4.39 3.96 3.70 3.71 3.98 3.96 3.99 4.14 3.94 3.82
0.29 0.39 0.47 0.36 0.27 0.29 0.49 1.01 0.95 0.90 0.94 1.11 1.14 1.38 1.73 1.83 2.16 2.29 2.34 2.60 3.25 3.79 4.49 4.90 5.02 5.21 5.12 5.18 4.97 4.55 4.44 4.44 4.50 4.63 4.85 4.63 4.61 4.53 4.61 4.28 3.77 3.78 3.72 3.84 4.05 3.90 3.98 3.95 3.93
0.37 0.44 0.51 0.51 0.33 0.33 0.50 0.93 0.98 0.93 1.09 1.21 1.36 1.40 1.56 1.79 2.23 2.51 2.69 2.84 3.48 4.18 4.92 5.47 6.03 6.25 6.10 5.85 5.54 5.25 5.22 5.07 4.90 4.89 4.91 4.76 4.42 4.19 4.44 4.18 3.94 3.81 3.76 3.69 3.46 3.95 4.09 4.11 4.10
0.41 0.42 0.50 0.56 0.34 0.34 0.57 0.83 0.99 1.08 1.23 1.36 1.40 1.36 1.49 1.84 2.06 2.41 2.78 3.20 3.78 4.29 5.07 5.79 6.52 6.73 6.48 5.96 5.76 5.73 5.55 5.24 4.98 4.77 4.75 4.42 4.18 3.81 4.07 3.80 3.71 3.81 3.99 3.86 3.92 4.28 4.28 3.93 4.03
0.29 0.35 0.47 0.49 0.34 0.40 0.62 0.82 1.01 1.20 1.35 1.39 1.50 1.46 1.64 1.93 2.10 2.48 2.89 3.37 3.90 4.46 5.17 5.86 6.47 6.61 6.48 6.17 5.87 5.63 5.17 4.86 4.55 4.31 4.16 3.93 3.63 3.50 3.90 3.56 3.92 3.77 3.74 3.60 3.58 3.81 3.85 3.49 3.67
0.25 0.35 0.49 0.48 0.36 0.42 0.67 0.91 1.17 1.25 1.18 1.17 1.34 1.43 1.51 1.72 2.03 2.42 2.99 3.29 3.64 4.19 4.80 5.20 5.34 5.20 5.11 5.21 5.18 4.91 4.89 4.73 4.67 4.52 4.40 3.93 3.70 3.58 3.36 3.59 3.41 3.38 3.53 3.34 3.30 3.55 3.55 3.19 3.50
0.20 0.30 0.39 0.44 0.44 0.54 0.78 1.20 1.44 1.43 1.16 1.05 1.07 1.20 1.34 1.47 1.68 2.05 2.62 2.96 3.14 3.67 4.04 4.05 4.07 4.09 4.24 4.34 4.31 4.36 4.59 4.67 4.78 4.77 4.56 4.20 3.96 3.73 3.52 3.38 3.24 3.23 3.03 3.21 3.28 3.33 3.48 3.45 3.34
0.21 0.20 0.26 0.33 0.49 0.85 0.97 1.53 1.78 1.86 1.57 1.23 1.10 1.26 1.34 1.40 1.42 1.74 2.10 2.34 2.63 2.94 3.11 3.12 3.26 3.44 3.57 3.66 3.66 3.58 3.63 3.90 4.19 4.47 4.62 4.57 4.28 3.96 3.63 3.36 3.15 3.00 2.81 3.13 2.81 2.96 3.29 3.53 3.22
0.15 0.15 0.22 0.34 0.48 0.70 0.84 1.20 1.74 2.03 1.99 1.57 1.27 1.21 1.17 1.30 1.47 1.65 1.78 1.99 2.11 2.21 2.38 2.45 2.73 3.22 3.45 3.52 3.64 3.59 3.34 3.36 3.48 3.64 3.86 3.87 3.90 3.71 3.32 3.20 3.13 2.94 2.74 2.80 2.80 3.17 3.16 3.13 3.05
0.14 0.20 0.33 0.49 0.73 1.09 0.93 1.06 1.64 1.84 1.86 1.47 1.25 1.17 1.08 1.08 1.19 1.40 1.67 1.79 1.80 1.83 1.98 2.19 2.52 3.11 3.44 3.52 3.42 3.44 3.47 3.55 3.45 3.42 3.53 3.45 3.42 3.32 3.02 2.87 3.01 2.90 2.78 2.84 2.83 2.93 2.99 3.14 3.20
0.17 0.34 0.80 1.29 1.62 1.65 1.01 0.97 1.27 1.35 1.22 1.18 1.06 1.10 1.16 1.06 0.99 0.99 1.17 1.42 1.46 1.45 1.61 1.87 2.15 2.63 2.97 3.13 2.98 2.95 3.16 3.38 3.28 3.09 3.03 3.02 2.87 2.79 2.74 2.75 2.87 2.76 2.81 2.86 2.97 3.01 2.98 3.10 3.13
0.16 0.28 0.66 1.04 1.18 1.30 1.16 1.51 1.57 1.18 0.99 0.89 0.80 0.87 0.96 0.86 0.77 0.72 0.79 0.98 1.25 1.27 1.39 1.55 1.82 2.09 2.40 2.62 2.68 2.75 2.95 3.08 3.03 3.24 2.97 2.81 2.47 2.36 2.48 2.69 2.69 2.59 2.57 2.61 3.06 3.06 3.06 3.17 3.08
0.18 0.20 0.32 0.48 0.69 1.05 1.35 1.57 1.48 1.22 1.12 0.92 0.76 0.73 0.73 0.67 0.68 0.71 0.77 0.99 1.08 1.07 1.18 1.34 1.56 1.77 2.04 2.28 2.48 2.54 2.52 2.55 2.70 2.87 2.81 2.64 2.56 2.29 2.38 2.50 2.74 2.81 2.85 2.90 3.08 3.03 3.05 3.27 3.21
0.16 0.19 0.26 0.39 0.65 0.94 1.25 1.70 1.75 1.51 1.30 1.09 1.01 0.82 0.71 0.71 0.72 0.72 0.73 0.79 0.84 0.91 1.06 1.30 1.51 1.54 1.79 2.17 2.42 2.37 2.45 2.38 2.53 2.51 2.49 2.52 2.44 2.39 2.47 2.50 2.59 2.79 2.91 2.93 3.06 3.03 3.10 3.29 3.30
0.21 0.19 0.21 0.30 0.37 0.60 1.15 1.39 1.23 1.22 1.15 1.09 1.00 0.93 0.87 0.81 0.77 0.73 0.74 0.74 0.86 0.83 0.93 1.13 1.31 1.45 1.73 2.11 2.44 2.51 2.46 2.46 2.51 2.33 2.28 2.41 2.43 2.42 2.51 2.55 2.55 2.52 2.66 2.89 3.11 3.01 3.16 3.28 3.30
0.21 0.21 0.22 0.31 0.33 0.39 0.63 0.96 0.73 0.83 0.96 1.00 0.89 0.82 0.78 0.68 0.65 0.60 0.59 0.67 0.68 0.70 0.83 1.18 1.48 1.86 2.07 2.42 2.82 2.92 2.71 2.50 2.33 2.12 2.11 2.29 2.46 2.50 2.49 2.51 2.50 2.43 2.54 2.83 2.96 3.05 3.34 3.48 3.33

GEFSSGP_prec_meanprecacc_366.txt.gz
Total_Precipitation_Accumulation
0.22 0.53 1.19 1.74 2.60 2.81 2.11 1.24 0.96 0.70 0.61 0.71 0.66 0.57 0.70 0.98 1.47 2.61 2.70 2.60 2.12 1.99 2.14 2.70 3.28 3.12 2.82 2.65 2.60 2.56 2.34 2.33 2.52 2.74 2.75 2.89 2.99 3.10 3.20 3.39 3.54 3.77 4.19 4.05 3.59 3.14 2.97 2.89 2.78
0.48 0.91 1.56 2.21 2.98 2.80 1.93 1.14 0.89 0.59 0.58 0.61 0.53 0.49 0.62 0.75 0.95 1.64 2.36 2.41 1.84 1.63 1.80 2.17 2.73 2.84 2.61 2.40 2.37 2.35 2.30 2.31 2.56 2.90 2.79 2.86 2.95 3.10 3.31 3.66 3.64 3.66 3.63 3.27 3.15 2.84 2.62 2.44 2.47
0.80 1.24 1.89 2.43 2.25 1.96 1.32 0.82 0.62 0.50 0.60 0.60 0.52 0.53 0.76 1.11 1.24 1.65 1.90 1.81 1.55 1.43 1.64 2.17 2.50 2.52 2.46 2.30 2.31 2.39 2.51 2.57 2.81 2.93 2.74 2.77 2.78 2.92 3.21 3.70 3.60 3.37 3.09 2.85 2.84 2.60 2.46 2.18 2.12
1.02 1.62 1.84 1.84 1.55 1.16 0.83 0.67 0.50 0.47 0.58 0.53 0.51 0.79 1.12 1.34 1.20 1.30 1.38 1.33 1.21 1.31 1.62 2.10 2.26 2.03 2.08 2.25 2.33 2.41 2.64 2.86 2.98 2.77 2.72 2.70 2.74 2.75 2.91 3.14 3.17 3.04 2.74 2.63 2.56 2.35 2.20 2.08 2.05
1.18 1.81 1.96 1.45 1.08 0.84 0.64 0.55 0.48 0.46 0.43 0.51 0.63 1.08 1.57 1.61 1.13 1.16 1.22 1.10 1.06 1.37 1.70 1.87 2.08 1.85 1.73 1.89 2.13 2.42 2.72 3.00 2.91 2.63 2.46 2.42 2.45 2.49 2.53 2.62 2.70 2.70 2.55 2.47 2.39 2.27 2.08 2.14 2.11
1.44 1.63 1.52 1.09 0.83 0.62 0.56 0.49 0.43 0.41 0.46 0.55 0.70 0.94 1.76 1.80 1.37 1.43 1.31 1.29 1.30 1.43 1.57 1.81 1.99 1.80 1.71 1.83 1.94 2.14 2.56 2.82 2.66 2.41 2.28 2.19 2.11 2.11 2.19 2.31 2.46 2.51 2.37 2.23 2.17 2.12 2.09 2.09 2.00
1.43 1.44 1.12 0.73 0.63 0.55 0.47 0.40 0.39 0.43 0.58 0.67 0.74 1.10 1.93 2.16 1.68 1.49 1.52 1.62 1.55 1.64 1.83 1.85 1.72 1.72 1.88 2.09 2.21 2.22 2.50 2.60 2.45 2.35 2.21 2.10 2.00 2.05 2.07 2.05 2.19 2.28 2.24 2.16 2.07 2.04 2.00 2.03 2.01
0.92 0.90 0.74 0.54 0.50 0.51 0.38 0.32 0.37 0.46 0.63 0.74 0.89 1.27 2.03 2.11 1.71 1.57 1.66 1.95 1.79 1.78 1.82 1.78 1.61 1.66 1.72 1.96 2.40 2.51 2.55 2.54 2.46 2.36 2.28 2.13 2.04 2.17 2.20 1.97 2.18 2.26 2.34 2.29 2.30 2.38 2.11 2.08 2.23
0.57 0.72 0.61 0.45 0.41 0.43 0.35 0.30 0.36 0.49 0.62 0.75 1.03 1.26 1.48 1.51 1.60 1.55 1.79 2.23 2.30 2.04 1.92 1.77 1.46 1.60 1.83 2.05 2.21 2.38 2.44 2.60 2.68 2.63 2.48 2.47 2.53 2.51 2.61 2.37 2.75 2.75 2.77 2.71 2.74 2.81 2.66 2.57 2.47
0.49 0.59 0.48 0.31 0.29 0.32 0.30 0.28 0.37 0.66 0.87 1.15 1.42 1.41 1.28 1.31 1.53 1.67 1.89 2.37 2.48 2.34 2.14 1.91 1.65 1.72 2.01 2.00 2.02 2.24 2.24 2.45 2.62 2.77 2.66 2.97 3.26 3.09 2.43 2.79 3.31 3.48 3.45 3.31 3.35 3.49 3.26 2.90 2.64
0.41 0.42 0.30 0.27 0.26 0.22 0.20 0.26 0.33 0.52 1.08 1.60 1.85 1.82 1.67 1.46 1.67 2.02 2.39 2.75 2.56 2.32 2.22 2.16 2.02 2.02 1.98 2.12 2.09 2.28 2.48 2.89 2.82 2.74 2.75 3.21 3.12 2.83 2.61 2.94 3.46 3.90 3.66 3.39 3.47 3.65 3.23 3.26 3.55
0.34 0.27 0.19 0.18 0.19 0.15 0.18 0.27 0.41 0.57 1.08 1.38 1.55 1.62 1.62 1.61 1.75 1.99 2.28 2.60 2.82 2.77 2.66 2.57 2.49 2.43 2.47 2.43 2.31 2.25 2.37 2.63 2.77 2.99 2.76 3.09 3.40 3.34 3.28 3.62 3.62 3.87 3.97 4.30 4.05 4.17 3.97 3.88 3.68
0.26 0.20 0.15 0.14 0.14 0.15 0.18 0.29 0.47 0.68 0.94 0.98 1.03 1.13 1.39 1.68 2.12 2.41 2.53 2.87 2.99 3.18 3.08 3.05 2.98 2.98 3.06 3.06 2.92 2.39 2.56 2.67 2.82 3.14 3.16 3.29 3.66 3.84 3.90 3.93 3.86 3.54 3.83 4.27 4.56 4.14 4.47 4.48 4.04
0.23 0.17 0.15 0.16 0.16 0.19 0.21 0.30 0.45 0.70 0.81 0.84 0.91 1.11 1.39 1.72 2.03 2.47 2.74 3.15 3.17 3.29 3.53 3.74 3.67 3.57 3.65 3.60 3.50 3.28 3.06 3.27 3.26 3.44 3.66 3.86 4.22 4.44 4.37 4.18 4.09 3.69 3.62 3.96 4.16 4.14 4.65 4.48 4.19
0.22 0.23 0.23 0.21 0.20 0.23 0.39 0.62 0.69 0.82 0.81 0.96 1.06 1.32 1.50 1.81 2.18 2.28 2.45 2.75 3.10 3.45 4.07 4.45 4.48 4.36 4.40 4.40 4.12 3.84 3.78 3.79 4.07 4.35 4.43 4.44 4.57 4.89 4.69 4.45 4.02 3.76 3.75 4.01 3.99 4.03 4.19 3.97 3.83
0.29 0.39 0.47 0.36 0.28 0.29 0.49 1.02 0.95 0.91 0.94 1.11 1.14 1.38 1.73 1.83 2.17 2.29 2.35 2.60 3.26 3.81 4.51 4.93 5.05 5.23 5.14 5.21 5.00 4.58 4.47 4.48 4.53 4.67 4.88 4.66 4.64 4.57 4.67 4.35 3.84 3.84 3.77 3.87 4.09 3.95 4.03 4.00 3.96
0.38 0.45 0.51 0.51 0.33 0.34 0.51 0.94 0.98 0.94 1.09 1.22 1.37 1.40 1.56 1.80 2.23 2.51 2.70 2.85 3.50 4.20 4.94 5.49 6.07 6.29 6.12 5.88 5.57 5.28 5.26 5.12 4.95 4.94 4.95 4.82 4.48 4.25 4.52 4.26 4.01 3.86 3.80 3.72 3.49 3.99 4.14 4.17 4.16
0.42 0.43 0.50 0.56 0.34 0.34 0.57 0.83 1.00 1.08 1.23 1.37 1.40 1.37 1.50 1.85 2.06 2.42 2.79 3.22 3.81 4.31 5.08 5.81 6.57 6.78 6.51 6.00 5.80 5.78 5.60 5.29 5.03 4.82 4.80 4.48 4.24 3.88 4.14 3.85 3.77 3.86 4.04 3.91 3.96 4.32 4.33 3.99 4.09
0.29 0.35 0.47 0.49 0.34 0.40 0.62 0.82 1.01 1.21 1.35 1.41 1.50 1.46 1.64 1.94 2.11 2.49 2.90 3.38 3.92 4.46 5.18 5.87 6.51 6.65 6.52 6.20 5.90 5.66 5.21 4.91 4.59 4.34 4.21 3.97 3.68 3.55 3.95 3.60 3.95 3.81 3.78 3.65 3.63 3.87 3.91 3.55 3.73
0.26 0.35 0.49 0.48 0.36 0.42 0.67 0.92 1.17 1.25 1.19 1.17 1.34 1.43 1.51 1.73 2.04 2.42 3.00 3.30 3.65 4.20 4.81 5.22 5.37 5.23 5.15 5.25 5.21 4.94 4.93 4.76 4.69 4.54 4.44 3.98 3.75 3.62 3.39 3.63 3.44 3.41 3.59 3.41 3.37 3.62 3.60 3.24 3.56
0.20 0.30 0.40 0.44 0.44 0.54 0.79 1.20 1.44 1.43 1.16 1.05 1.07 1.20 1.34 1.48 1.69 2.05 2.63 2.97 3.16 3.70 4.07 4.09 4.11 4.14 4.29 4.39 4.34 4.39 4.61 4.69 4.80 4.79 4.60 4.24 4.00 3.79 3.56 3.42 3.27 3.26 3.07 3.26 3.34 3.38 3.52 3.51 3.40
0.21 0.20 0.26 0.33 0.49 0.85 0.97 1.54 1.78 1.86 1.58 1.23 1.11 1.26 1.34 1.40 1.42 1.74 2.10 2.34 2.65 2.96 3.14 3.14 3.29 3.49 3.62 3.71 3.69 3.60 3.65 3.92 4.21 4.50 4.66 4.60 4.31 4.00 3.66 3.40 3.18 3.04 2.83 3.15 2.83 2.99 3.33 3.57 3.26
0.15 0.15 0.22 0.34 0.48 0.71 0.84 1.21 1.75 2.04 1.99 1.58 1.28 1.22 1.17 1.30 1.48 1.66 1.78 1.99 2.11 2.22 2.40 2.48 2.76 3.26 3.49 3.55 3.66 3.62 3.37 3.39 3.51 3.67 3.91 3.92 3.95 3.75 3.34 3.24 3.17 2.98 2.77 2.82 2.82 3.19 3.19 3.16 3.09
0.14 0.21 0.33 0.49 0.73 1.10 0.94 1.07 1.64 1.84 1.86 1.48 1.25 1.18 1.08 1.08 1.19 1.40 1.67 1.79 1.80 1.84 2.00 2.23 2.56 3.15 3.46 3.54 3.44 3.47 3.50 3.58 3.49 3.46 3.57 3.49 3.46 3.36 3.04 2.90 3.06 2.95 2.83 2.87 2.87 2.97 3.02 3.17 3.23
0.17 0.35 0.82 1.30 1.62 1.66 1.01 0.97 1.27 1.35 1.22 1.19 1.06 1.10 1.16 1.06 0.99 0.99 1.17 1.43 1.47 1.47 1.63 1.90 2.17 2.65 2.98 3.14 3.00 2.98 3.21 3.43 3.31 3.13 3.08 3.06 2.91 2.83 2.77 2.77 2.90 2.80 2.86 2.91 3.02 3.06 3.03 3.13 3.16
0.17 0.29 0.68 1.05 1.19 1.30 1.16 1.51 1.57 1.18 0.99 0.89 0.80 0.87 0.97 0.86 0.77 0.73 0.80 0.99 1.25 1.28 1.40 1.56 1.83 2.09 2.41 2.63 2.70 2.76 2.98 3.12 3.07 3.28 3.01 2.85 2.50 2.39 2.51 2.72 2.71 2.61 2.61 2.65 3.12 3.12 3.12 3.22 3.13
0.19 0.21 0.32 0.49 0.69 1.05 1.35 1.57 1.48 1.22 1.12 0.93 0.77 0.74 0.73 0.67 0.68 0.72 0.78 1.00 1.09 1.08 1.18 1.35 1.56 1.77 2.04 2.29 2.49 2.55 2.54 2.57 2.73 2.91 2.85 2.68 2.59 2.32 2.41 2.53 2.78 2.84 2.89 2.94 3.13 3.08 3.10 3.31 3.25
0.17 0.19 0.27 0.39 0.66 0.94 1.25 1.70 1.75 1.51 1.30 1.09 1.01 0.82 0.71 0.72 0.72 0.73 0.74 0.80 0.86 0.92 1.07 1.30 1.51 1.54 1.79 2.19 2.44 2.39 2.47 2.40 2.55 2.53 2.51 2.54 2.47 2.43 2.51 2.55 2.65 2.85 2.97 2.99 3.11 3.07 3.13 3.33 3.35
0.21 0.20 0.22 0.30 0.37 0.61 1.16 1.39 1.23 1.22 1.15 1.09 1.00 0.94 0.87 0.82 0.78 0.75 0.76 0.76 0.87 0.83 0.93 1.14 1.31 1.45 1.74 2.12 2.45 2.52 2.47 2.47 2.52 2.34 2.29 2.42 2.45 2.45 2.55 2.59 2.59 2.58 2.74 2.97 3.19 3.06 3.20 3.32 3.34
0.21 0.21 0.23 0.32 0.33 0.39 0.63 0.96 0.73 0.83 0.96 1.00 0.89 0.82 0.78 0.69 0.66 0.61 0.60 0.68 0.69 0.71 0.84 1.18 1.48 1.86 2.08 2.43 2.82 2.93 2.72 2.51 2.34 2.13 2.12 2.30 2.48 2.52 2.52 2.53 2.52 2.46 2.58 2.87 3.00 3.08 3.38 3.52 3.36

GEFSSGP_prec_meanprecacc_372.txt.gz
Total_Precipitation_Accumulation
0.22 0.53 1.20 1.76 2.70 2.93 2.16 1.26 0.97 0.70 0.61 0.71 0.66 0.58 0.72 1.00 1.51 2.67 2.73 2.62 2.14 2.01 2.19 2.75 3.32 3.17 2.90 2.73 2.68 2.63 2.42 2.40 2.59 2.80 2.81 2.95 3.07 3.18 3.29 3.47 3.63 3.87 4.29 4.16 3.72 3.27 3.11 3.04 2.91
0.48 0.91 1.57 2.26 3.11 2.92 1.98 1.15 0.90 0.60 0.58 0.61 0.53 0.49 0.62 0.76 0.95 1.65 2.39 2.43 1.86 1.66 1.86 2.24 2.78 2.89 2.66 2.48 2.46 2.43 2.37 2.40 2.66 2.97 2.85 2.91 3.01 3.18 3.41 3.77 3.80 3.87 3.84 3.46 3.32 2.98 2.77 2.59 2.63
0.81 1.25 1.93 2.52 2.33 2.05 1.36 0.83 0.63 0.50 0.60 0.61 0.52 0.54 0.76 1.13 1.25 1.67 1.95 1.83 1.58 1.47 1.69 2.22 2.54 2.56 2.52 2.53 2.69 2.61 2.62 2.68 2.93 3.03 2.81 2.82 2.84 2.99 3.30 3.88 3.81 3.54 3.24 3.02 3.04 2.79 2.64 2.34 2.27
1.03 1.64 1.88 1.89 1.57 1.18 0.83 0.67 0.50 0.47 0.58 0.54 0.52 0.80 1.13 1.35 1.20 1.33 1.44 1.37 1.24 1.34 1.67 2.14 2.30 2.07 2.15 2.49 2.62 2.69 2.81 2.99 3.13 2.89 2.82 2.78 2.81 2.84 3.04 3.37 3.33 3.19 2.90 2.81 2.75 2.60 2.40 2.26 2.23
1.20 1.86 2.03 1.48 1.09 0.84 0.64 0.55 0.48 0.46 0.43 0.51 0.63 1.08 1.58 1.62 1.14 1.19 1.27 1.14 1.10 1.42 1.75 1.91 2.13 1.89 1.77 1.99 2.30 2.61 2.91 3.23 3.13 2.76 2.57 2.51 2.52 2.57 2.66 2.81 2.85 2.83 2.67 2.62 2.55 2.44 2.21 2.26 2.25
1.49 1.72 1.60 1.11 0.84 0.62 0.56 0.50 0.44 0.41 0.46 0.55 0.70 0.94 1.77 1.81 1.38 1.46 1.35 1.33 1.33 1.47 1.61 1.85 2.03 1.83 1.74 1.87 2.00 2.25 2.72 3.04 2.84 2.52 2.36 2.26 2.17 2.17 2.26 2.45 2.63 2.62 2.46 2.32 2.27 2.24 2.17 2.16 2.09
1.50 1.52 1.16 0.74 0.65 0.56 0.47 0.40 0.40 0.43 0.59 0.67 0.74 1.10 1.94 2.17 1.71 1.52 1.56 1.67 1.62 1.69 1.89 1.90 1.76 1.75 1.92 2.12 2.24 2.28 2.58 2.69 2.55 2.44 2.29 2.15 2.05 2.11 2.13 2.16 2.39 2.46 2.38 2.29 2.23 2.17 2.07 2.08 2.05
0.94 0.94 0.78 0.55 0.52 0.53 0.38 0.32 0.37 0.46 0.63 0.74 0.89 1.28 2.04 2.12 1.73 1.58 1.70 2.04 1.94 1.89 1.90 1.83 1.65 1.70 1.76 2.02 2.44 2.54 2.56 2.56 2.50 2.39 2.31 2.17 2.09 2.24 2.26 2.04 2.36 2.48 2.56 2.48 2.46 2.49 2.19 2.15 2.29
0.59 0.76 0.67 0.47 0.43 0.43 0.35 0.30 0.36 0.49 0.62 0.75 1.03 1.26 1.48 1.52 1.61 1.57 1.84 2.30 2.38 2.15 2.04 1.85 1.51 1.65 1.86 2.09 2.25 2.41 2.46 2.62 2.72 2.67 2.51 2.51 2.62 2.62 2.72 2.45 2.86 2.93 2.95 2.86 2.85 2.90 2.75 2.67 2.54
0.50 0.62 0.51 0.31 0.30 0.32 0.30 0.28 0.37 0.66 0.89 1.16 1.42 1.41 1.28 1.32 1.54 1.69 1.93 2.41 2.52 2.41 2.22 1.99 1.72 1.76 2.04 2.02 2.05 2.28 2.28 2.50 2.67 2.86 2.73 3.05 3.37 3.19 2.52 2.87 3.37 3.58 3.59 3.46 3.49 3.60 3.36 3.01 2.75
0.41 0.43 0.31 0.27 0.26 0.22 0.20 0.26 0.33 0.53 1.10 1.62 1.86 1.82 1.67 1.46 1.67 2.03 2.42 2.80 2.60 2.36 2.27 2.21 2.07 2.08 2.01 2.15 2.13 2.33 2.54 2.97 2.90 2.85 2.84 3.30 3.20 2.90 2.69 3.04 3.54 3.99 3.77 3.56 3.67 3.82 3.35 3.38 3.70
0.34 0.27 0.19 0.18 0.19 0.15 0.18 0.27 0.41 0.57 1.09 1.38 1.55 1.62 1.62 1.61 1.76 2.00 2.31 2.64 2.87 2.81 2.69 2.61 2.51 2.46 2.51 2.46 2.35 2.29 2.41 2.70 2.84 3.09 2.84 3.19 3.50 3.44 3.38 3.73 3.71 3.99 4.11 4.47 4.22 4.34 4.08 3.99 3.80
0.27 0.20 0.15 0.14 0.14 0.15 0.18 0.29 0.47 0.68 0.94 0.98 1.03 1.13 1.39 1.69 2.13 2.43 2.54 2.90 3.04 3.21 3.10 3.09 3.00 3.01 3.09 3.10 2.96 2.43 2.60 2.72 2.86 3.20 3.24 3.37 3.74 3.92 3.99 4.02 3.97 3.65 3.93 4.38 4.66 4.24 4.55 4.56 4.12
0.23 0.18 0.16 0.16 0.16 0.19 0.21 0.30 0.45 0.70 0.81 0.84 0.91 1.11 1.39 1.72 2.03 2.49 2.77 3.19 3.21 3.31 3.55 3.77 3.69 3.60 3.68 3.63 3.54 3.31 3.10 3.30 3.30 3.49 3.73 3.93 4.29 4.53 4.47 4.27 4.19 3.77 3.68 4.02 4.25 4.24 4.75 4.56 4.26
0.22 0.23 0.24 0.21 0.20 0.23 0.39 0.63 0.70 0.82 0.81 0.96 1.06 1.33 1.51 1.81 2.19 2.30 2.47 2.77 3.13 3.48 4.09 4.48 4.50 4.38 4.43 4.44 4.16 3.86 3.80 3.81 4.10 4.41 4.49 4.51 4.66 5.01 4.80 4.54 4.11 3.84 3.81 4.06 4.05 4.10 4.26 4.02 3.89
0.29 0.40 0.48 0.37 0.28 0.29 0.50 1.04 0.97 0.91 0.94 1.11 1.14 1.39 1.74 1.85 2.18 2.32 2.36 2.62 3.28 3.83 4.55 4.96 5.06 5.26 5.17 5.25 5.04 4.61 4.50 4.52 4.58 4.73 4.95 4.73 4.71 4.65 4.76 4.44 3.91 3.90 3.83 3.92 4.14 4.01 4.09 4.06 4.02
0.39 0.48 0.53 0.52 0.33 0.34 0.51 0.95 1.00 0.94 1.09 1.22 1.37 1.41 1.57 1.81 2.25 2.54 2.72 2.87 3.52 4.22 4.96 5.53 6.11 6.32 6.14 5.93 5.62 5.32 5.30 5.16 4.99 4.99 5.01 4.89 4.54 4.33 4.60 4.34 4.09 3.93 3.86 3.78 3.55 4.06 4.22 4.25 4.23
0.44 0.44 0.51 0.57 0.35 0.34 0.58 0.83 1.00 1.08 1.23 1.37 1.40 1.37 1.50 1.86 2.09 2.45 2.81 3.24 3.83 4.33 5.10 5.85 6.62 6.82 6.55 6.04 5.86 5.84 5.65 5.34 5.08 4.86 4.86 4.55 4.32 3.94 4.21 3.92 3.83 3.92 4.12 3.99 4.05 4.41 4.42 4.06 4.15
0.30 0.36 0.49 0.51 0.35 0.40 0.62 0.82 1.01 1.21 1.35 1.41 1.50 1.46 1.65 1.95 2.13 2.51 2.92 3.40 3.93 4.48 5.20 5.90 6.55 6.70 6.57 6.25 5.95 5.72 5.28 4.97 4.64 4.39 4.27 4.07 3.76 3.62 4.02 3.65 4.01 3.87 3.85 3.72 3.71 3.97 4.01 3.63 3.80
0.26 0.36 0.50 0.49 0.36 0.42 0.67 0.92 1.17 1.25 1.19 1.17 1.34 1.43 1.51 1.74 2.06 2.44 3.02 3.33 3.67 4.21 4.83 5.26 5.41 5.27 5.19 5.30 5.26 5.00 5.00 4.82 4.76 4.61 4.50 4.04 3.82 3.69 3.44 3.69 3.51 3.48 3.69 3.48 3.45 3.71 3.70 3.33 3.66
0.20 0.31 0.40 0.44 0.45 0.55 0.81 1.23 1.46 1.44 1.16 1.05 1.07 1.20 1.34 1.48 1.70 2.07 2.64 3.00 3.20 3.73 4.09 4.11 4.14 4.17 4.33 4.44 4.40 4.45 4.68 4.77 4.88 4.85 4.64 4.27 4.02 3.82 3.59 3.46 3.32 3.33 3.14 3.34 3.42 3.47 3.62 3.60 3.50
0.22 0.20 0.26 0.33 0.51 0.88 1.00 1.61 1.86 1.90 1.59 1.24 1.12 1.26 1.34 1.40 1.43 1.76 2.12 2.36 2.67 3.00 3.17 3.17 3.32 3.52 3.66 3.76 3.75 3.66 3.70 3.96 4.25 4.55 4.71 4.64 4.33 4.01 3.68 3.43 3.23 3.10 2.90 3.22 2.90 3.06 3.41 3.66 3.34
0.15 0.15 0.22 0.35 0.50 0.73 0.86 1.26 1.81 2.08 2.01 1.58 1.29 1.22 1.17 1.30 1.48 1.66 1.79 2.00 2.12 2.23 2.42 2.50 2.78 3.28 3.51 3.58 3.69 3.65 3.41 3.43 3.55 3.72 3.95 3.96 3.98 3.78 3.37 3.28 3.20 3.02 2.82 2.87 2.88 3.25 3.25 3.22 3.14
0.14 0.21 0.34 0.50 0.77 1.15 0.96 1.12 1.71 1.87 1.89 1.49 1.26 1.18 1.09 1.08 1.19 1.40 1.68 1.81 1.81 1.84 2.01 2.24 2.58 3.17 3.49 3.56 3.46 3.49 3.53 3.62 3.53 3.50 3.61 3.52 3.49 3.40 3.10 2.95 3.09 2.98 2.86 2.92 2.92 3.03 3.08 3.22 3.29
0.17 0.36 0.85 1.35 1.73 1.71 1.02 0.99 1.30 1.37 1.24 1.20 1.07 1.11 1.17 1.07 0.99 0.99 1.17 1.43 1.47 1.47 1.64 1.91 2.19 2.67 2.99 3.15 3.01 2.99 3.23 3.47 3.35 3.17 3.12 3.10 2.95 2.87 2.82 2.82 2.94 2.83 2.89 2.95 3.06 3.10 3.07 3.19 3.22
0.17 0.29 0.73 1.12 1.24 1.33 1.17 1.54 1.59 1.19 0.99 0.90 0.81 0.89 0.98 0.88 0.78 0.74 0.81 0.99 1.26 1.29 1.41 1.56 1.83 2.10 2.42 2.65 2.71 2.77 2.99 3.15 3.10 3.32 3.04 2.88 2.53 2.42 2.54 2.76 2.75 2.64 2.63 2.67 3.15 3.16 3.16 3.27 3.18
0.19 0.21 0.33 0.51 0.72 1.09 1.36 1.59 1.51 1.24 1.13 0.93 0.77 0.76 0.75 0.68 0.69 0.73 0.80 1.01 1.10 1.09 1.19 1.35 1.57 1.77 2.05 2.30 2.50 2.56 2.56 2.60 2.76 2.94 2.87 2.70 2.63 2.35 2.44 2.56 2.82 2.87 2.92 2.97 3.17 3.13 3.15 3.38 3.32
0.17 0.20 0.28 0.40 0.68 0.97 1.28 1.74 1.80 1.53 1.30 1.10 1.02 0.83 0.73 0.72 0.73 0.74 0.76 0.82 0.87 0.93 1.07 1.30 1.51 1.55 1.81 2.22 2.47 2.40 2.48 2.41 2.58 2.55 2.53 2.57 2.50 2.48 2.58 2.60 2.70 2.89 3.01 3.03 3.16 3.12 3.18 3.39 3.40
0.22 0.20 0.23 0.31 0.41 0.64 1.21 1.43 1.25 1.24 1.17 1.13 1.03 0.94 0.87 0.82 0.79 0.76 0.77 0.78 0.89 0.84 0.93 1.14 1.31 1.47 1.79 2.19 2.52 2.56 2.49 2.49 2.55 2.37 2.31 2.45 2.49 2.50 2.64 2.66 2.65 2.62 2.77 3.00 3.22 3.09 3.23 3.36 3.39
0.22 0.22 0.24 0.33 0.35 0.42 0.68 1.02 0.74 0.83 0.96 1.02 0.92 0.84 0.78 0.69 0.67 0.62 0.61 0.69 0.70 0.73 0.85 1.19 1.50 1.89 2.11 2.46 2.85 2.95 2.73 2.51 2.35 2.15 2.14 2.32 2.51 2.55 2.56 2.57 2.55 2.47 2.60 2.90 3.03 3.12 3.42 3.56 3.41

GEFSSGP_prec_meanprecacc_378.txt.gz
Total_Precipitation_Accumulation
0.23 0.57 1.27 1.84 2.79 3.03 2.24 1.31 1.00 0.71 0.62 0.71 0.68 0.59 0.72 1.00 1.53 2.71 2.78 2.66 2.17 2.03 2.22 2.79 3.35 3.19 2.96 2.83 2.79 2.75 2.48 2.44 2.63 2.85 2.86 3.00 3.12 3.24 3.35 3.53 3.66 3.89 4.31 4.19 3.76 3.33 3.19 3.11 2.98
0.51 0.96 1.64 2.34 3.22 3.03 2.04 1.18 0.92 0.60 0.58 0.62 0.54 0.49 0.62 0.77 0.98 1.70 2.44 2.47 1.89 1.69 1.89 2.27 2.81 2.92 2.72 2.60 2.57 2.52 2.42 2.45 2.71 3.03 2.89 2.95 3.05 3.24 3.48 3.81 3.83 3.90 3.87 3.49 3.35 3.03 2.82 2.67 2.73
0.85 1.30 1.99 2.62 2.43 2.11 1.41 0.86 0.65 0.51 0.60 0.61 0.52 0.54 0.77 1.15 1.28 1.74 2.01 1.86 1.60 1.49 1.71 2.25 2.56 2.59 2.61 2.69 2.85 2.69 2.68 2.74 2.99 3.08 2.86 2.86 2.88 3.05 3.37 3.93 3.86 3.60 3.32 3.10 3.12 2.86 2.72 2.42 2.38
1.08 1.73 2.03 2.00 1.63 1.20 0.85 0.69 0.51 0.48 0.59 0.54 0.52 0.80 1.14 1.37 1.24 1.40 1.49 1.40 1.27 1.37 1.70 2.16 2.33 2.14 2.31 2.65 2.80 2.86 2.93 3.09 3.20 2.94 2.85 2.81 2.85 2.89 3.11 3.44 3.42 3.31 3.03 2.96 2.90 2.73 2.50 2.34 2.33
1.26 1.98 2.21 1.58 1.13 0.86 0.66 0.56 0.49 0.47 0.43 0.51 0.63 1.09 1.59 1.64 1.16 1.24 1.32 1.17 1.12 1.45 1.78 1.93 2.17 1.98 1.93 2.19 2.49 2.81 3.11 3.37 3.22 2.81 2.61 2.55 2.58 2.63 2.73 2.90 2.96 2.93 2.74 2.69 2.65 2.55 2.32 2.36 2.35
1.58 1.85 1.71 1.18 0.87 0.65 0.58 0.51 0.44 0.42 0.46 0.55 0.70 0.95 1.79 1.83 1.40 1.48 1.38 1.35 1.37 1.51 1.64 1.89 2.06 1.87 1.84 1.98 2.12 2.38 2.86 3.16 2.92 2.57 2.40 2.30 2.21 2.22 2.31 2.53 2.74 2.70 2.51 2.36 2.32 2.34 2.30 2.28 2.18
1.59 1.69 1.25 0.79 0.68 0.59 0.49 0.41 0.40 0.44 0.59 0.68 0.74 1.11 1.96 2.20 1.74 1.54 1.59 1.70 1.66 1.73 1.92 1.93 1.79 1.78 1.94 2.16 2.30 2.36 2.68 2.79 2.62 2.49 2.33 2.19 2.09 2.15 2.18 2.24 2.53 2.54 2.41 2.32 2.28 2.27 2.20 2.20 2.15
1.05 1.13 0.88 0.60 0.56 0.56 0.39 0.32 0.37 0.46 0.63 0.75 0.90 1.28 2.06 2.13 1.75 1.61 1.74 2.08 1.99 1.94 1.94 1.86 1.68 1.74 1.79 2.05 2.48 2.58 2.61 2.61 2.53 2.43 2.36 2.22 2.14 2.30 2.32 2.12 2.53 2.65 2.64 2.54 2.54 2.61 2.31 2.25 2.37
0.68 0.92 0.77 0.53 0.45 0.45 0.36 0.32 0.39 0.51 0.64 0.75 1.04 1.26 1.49 1.53 1.63 1.61 1.90 2.36 2.44 2.21 2.09 1.89 1.55 1.68 1.89 2.11 2.27 2.43 2.49 2.66 2.75 2.70 2.55 2.55 2.65 2.66 2.78 2.55 3.02 3.17 3.11 2.98 2.99 3.05 2.86 2.75 2.61
0.57 0.68 0.55 0.34 0.31 0.33 0.32 0.30 0.39 0.70 0.92 1.17 1.43 1.42 1.29 1.32 1.55 1.72 1.97 2.47 2.58 2.49 2.29 2.05 1.76 1.79 2.06 2.04 2.07 2.29 2.30 2.53 2.70 2.90 2.76 3.07 3.39 3.22 2.57 2.93 3.46 3.78 3.83 3.66 3.67 3.73 3.45 3.08 2.82
0.46 0.48 0.33 0.28 0.27 0.23 0.21 0.27 0.35 0.55 1.12 1.63 1.86 1.83 1.68 1.47 1.69 2.05 2.44 2.83 2.62 2.39 2.30 2.25 2.12 2.12 2.03 2.16 2.14 2.34 2.56 2.99 2.94 2.88 2.86 3.31 3.22 2.92 2.72 3.09 3.59 4.10 3.96 3.76 3.82 3.94 3.44 3.45 3.79
0.37 0.34 0.22 0.19 0.21 0.18 0.21 0.28 0.42 0.58 1.10 1.38 1.56 1.63 1.63 1.63 1.77 2.02 2.33 2.68 2.90 2.83 2.70 2.62 2.53 2.48 2.53 2.48 2.37 2.31 2.43 2.72 2.87 3.12 2.87 3.20 3.52 3.46 3.41 3.77 3.77 4.06 4.21 4.59 4.35 4.45 4.17 4.06 3.88
0.28 0.23 0.17 0.15 0.16 0.17 0.22 0.32 0.49 0.69 0.94 0.98 1.03 1.14 1.41 1.70 2.14 2.45 2.57 2.93 3.06 3.23 3.11 3.10 3.01 3.02 3.11 3.12 2.98 2.45 2.62 2.73 2.88 3.22 3.26 3.38 3.76 3.94 4.01 4.05 4.01 3.71 3.99 4.44 4.73 4.31 4.62 4.63 4.17
0.25 0.20 0.18 0.17 0.17 0.20 0.24 0.33 0.46 0.71 0.81 0.84 0.92 1.12 1.39 1.72 2.04 2.51 2.79 3.21 3.23 3.33 3.56 3.77 3.70 3.61 3.69 3.65 3.55 3.33 3.12 3.33 3.32 3.51 3.75 3.94 4.31 4.55 4.49 4.29 4.22 3.81 3.73 4.07 4.29 4.27 4.78 4.61 4.32
0.24 0.26 0.25 0.23 0.21 0.25 0.42 0.67 0.71 0.82 0.82 0.97 1.07 1.34 1.51 1.82 2.20 2.32 2.49 2.79 3.15 3.50 4.10 4.49 4.51 4.40 4.46 4.46 4.17 3.87 3.82 3.82 4.12 4.43 4.52 4.52 4.67 5.03 4.82 4.57 4.13 3.86 3.85 4.10 4.07 4.12 4.28 4.06 3.93
0.32 0.44 0.51 0.38 0.29 0.31 0.53 1.10 0.98 0.91 0.95 1.12 1.17 1.40 1.76 1.86 2.20 2.35 2.39 2.64 3.30 3.85 4.55 4.98 5.08 5.28 5.20 5.28 5.07 4.63 4.52 4.53 4.59 4.75 4.97 4.75 4.73 4.67 4.79 4.47 3.94 3.93 3.85 3.94 4.17 4.04 4.13 4.09 4.06
0.44 0.53 0.57 0.53 0.35 0.36 0.54 1.00 1.01 0.94 1.10 1.23 1.39 1.43 1.59 1.83 2.29 2.60 2.76 2.89 3.53 4.23 4.97 5.55 6.13 6.34 6.18 5.95 5.65 5.35 5.34 5.20 5.02 5.00 5.02 4.90 4.56 4.35 4.62 4.36 4.11 3.95 3.89 3.80 3.58 4.11 4.26 4.29 4.28
0.49 0.50 0.55 0.60 0.37 0.36 0.59 0.85 1.01 1.09 1.24 1.38 1.42 1.38 1.52 1.87 2.12 2.51 2.86 3.28 3.85 4.34 5.11 5.87 6.64 6.84 6.58 6.07 5.90 5.89 5.72 5.40 5.13 4.90 4.89 4.59 4.36 3.97 4.24 3.95 3.85 3.94 4.14 4.02 4.08 4.46 4.46 4.10 4.20
0.34 0.40 0.53 0.55 0.37 0.42 0.64 0.84 1.03 1.22 1.36 1.41 1.51 1.47 1.65 1.96 2.14 2.53 2.96 3.44 3.97 4.50 5.21 5.92 6.56 6.71 6.58 6.28 5.99 5.76 5.34 5.04 4.71 4.46 4.36 4.14 3.81 3.65 4.05 3.68 4.03 3.89 3.87 3.74 3.75 4.01 4.04 3.66 3.85
0.29 0.40 0.55 0.54 0.40 0.44 0.69 0.95 1.20 1.27 1.20 1.18 1.35 1.44 1.52 1.75 2.08 2.49 3.06 3.36 3.72 4.25 4.86 5.28 5.42 5.28 5.20 5.31 5.28 5.02 5.04 4.88 4.82 4.69 4.58 4.10 3.87 3.73 3.48 3.72 3.53 3.51 3.73 3.52 3.50 3.78 3.73 3.37 3.71
0.22 0.33 0.43 0.48 0.47 0.58 0.85 1.28 1.52 1.49 1.19 1.07 1.08 1.21 1.35 1.48 1.71 2.09 2.67 3.02 3.27 3.77 4.11 4.13 4.14 4.18 4.34 4.44 4.41 4.47 4.72 4.81 4.92 4.89 4.68 4.30 4.05 3.86 3.64 3.50 3.36 3.38 3.19 3.38 3.46 3.53 3.66 3.63 3.53
0.23 0.21 0.28 0.35 0.53 0.93 1.06 1.70 1.98 1.98 1.62 1.26 1.14 1.27 1.35 1.41 1.44 1.77 2.13 2.38 2.73 3.06 3.20 3.19 3.33 3.53 3.67 3.77 3.75 3.67 3.72 3.98 4.28 4.56 4.73 4.67 4.36 4.06 3.74 3.49 3.28 3.15 2.95 3.26 2.93 3.09 3.44 3.68 3.36
0.17 0.16 0.23 0.36 0.52 0.79 0.94 1.35 1.91 2.14 2.07 1.63 1.31 1.24 1.18 1.31 1.49 1.68 1.81 2.02 2.15 2.26 2.43 2.51 2.80 3.30 3.53 3.59 3.70 3.66 3.42 3.45 3.57 3.74 3.97 3.98 4.01 3.83 3.43 3.32 3.24 3.06 2.85 2.90 2.91 3.28 3.28 3.24 3.16
0.16 0.22 0.36 0.53 0.79 1.19 1.01 1.17 1.77 1.91 1.92 1.52 1.28 1.19 1.10 1.10 1.21 1.42 1.70 1.82 1.82 1.86 2.02 2.25 2.59 3.19 3.50 3.56 3.46 3.50 3.55 3.64 3.55 3.51 3.62 3.53 3.52 3.44 3.12 2.98 3.12 3.01 2.90 2.94 2.94 3.05 3.10 3.24 3.31
0.19 0.39 0.90 1.40 1.76 1.74 1.07 1.07 1.37 1.39 1.26 1.22 1.09 1.12 1.19 1.09 1.01 1.02 1.21 1.45 1.48 1.48 1.66 1.93 2.21 2.68 3.01 3.16 3.02 3.01 3.25 3.49 3.37 3.18 3.13 3.11 2.96 2.89 2.84 2.85 2.97 2.87 2.92 2.97 3.08 3.12 3.09 3.20 3.24
0.19 0.32 0.79 1.20 1.28 1.38 1.23 1.59 1.63 1.21 1.02 0.93 0.83 0.91 1.00 0.89 0.80 0.75 0.82 1.00 1.27 1.31 1.43 1.59 1.86 2.12 2.45 2.68 2.73 2.80 3.01 3.17 3.12 3.33 3.06 2.89 2.54 2.43 2.55 2.77 2.76 2.66 2.65 2.69 3.17 3.17 3.18 3.29 3.19
0.19 0.22 0.36 0.55 0.75 1.14 1.44 1.63 1.53 1.26 1.16 0.96 0.80 0.78 0.76 0.70 0.71 0.75 0.82 1.04 1.12 1.12 1.22 1.38 1.60 1.82 2.12 2.36 2.53 2.59 2.58 2.62 2.78 2.96 2.89 2.72 2.65 2.37 2.46 2.58 2.83 2.89 2.93 2.98 3.18 3.14 3.17 3.40 3.33
0.17 0.21 0.31 0.44 0.74 1.05 1.36 1.79 1.85 1.56 1.33 1.12 1.03 0.86 0.78 0.76 0.75 0.76 0.78 0.86 0.93 0.98 1.11 1.35 1.62 1.68 1.91 2.27 2.51 2.45 2.53 2.45 2.60 2.58 2.56 2.59 2.53 2.49 2.59 2.62 2.72 2.91 3.02 3.04 3.18 3.15 3.21 3.41 3.43
0.23 0.22 0.25 0.34 0.45 0.70 1.31 1.54 1.30 1.26 1.20 1.15 1.05 0.97 0.92 0.87 0.82 0.78 0.79 0.82 0.96 0.91 0.99 1.19 1.38 1.55 1.85 2.24 2.57 2.63 2.54 2.52 2.58 2.39 2.34 2.48 2.51 2.51 2.64 2.67 2.67 2.65 2.80 3.02 3.25 3.12 3.26 3.39 3.42
0.23 0.23 0.26 0.36 0.39 0.47 0.79 1.12 0.78 0.87 0.99 1.04 0.94 0.86 0.81 0.73 0.71 0.66 0.66 0.73 0.73 0.76 0.89 1.25 1.56 1.96 2.21 2.59 2.95 3.00 2.77 2.55 2.39 2.17 2.17 2.35 2.53 2.56 2.57 2.59 2.58 2.50 2.63 2.93 3.06 3.15 3.45 3.59 3.44